"Pseudo-MPEC" for A11F5VI

Created 2026 Jul 28 21:35:03 UT using Find_Orb

Click here for an explanation of pseudo-MPECs

 
 Astrometry: 
     A11F5VI*0C2026 07 25.46689420 13 38.753+21 16 33.82   ~7PL5 17.90oVNEOCPT08
     A11F5VI 0C2026 07 25.47013820 13 46.375+21 15 57.31   ~7PL5 17.84oVNEOCPT08
     A11F5VI 0C2026 07 25.50787920 15 18.338+21 08 28.57   ~7PL5 18.12oVNEOCPT08
     A11F5VI 0B2026 07 25.88933220 39 50.199+19 14 36.87   ~7PM5 17.6 GWNEOCPG34
     A11F5VI 0B2026 07 25.89061620 39 56.195+19 14 08.08   ~7PM5 17.2 GWNEOCPG34
     A11F5VI 0B2026 07 25.89190520 40 02.130+19 13 38.59   ~7PM5 17.6 GWNEOCPG34
     A11F5VI 0B2026 07 25.89447820 40 14.022+19 12 40.17   ~7PM5 17.4 GWNEOCPG34
     A11F5VI 0B2026 07 25.89576020 40 19.997+19 12 11.21   ~7PM5 17.5 GWNEOCPG34
     A11F5VI 0B2026 07 25.89768420 40 28.942+19 11 26.84   ~7PMK 17.6 GWNEOCPG34
     A11F5VI 0B2026 07 25.90024920 40 40.939+19 10 27.84   ~7PMK 17.5 GWNEOCPG34
     A11F5VI 0B2026 07 25.90282320 40 52.990+19 09 28.57   ~7PMK 17.5 GWNEOCPG34
     A11F5VI KC2026 07 25.91898 20 42 07.44 +19 05 36.1    ~7PMox17.9 VSNEOCPC43
     A11F5VI KC2026 07 25.92066 20 42 15.55 +19 04 55.6    ~7PMox18.2 VSNEOCPC43
     A11F5VI KC2026 07 25.92235 20 42 23.67 +19 04 13.7    ~7PMox18.1 VSNEOCPC43
     A11F5VI KB2026 07 25.93061320 43 12.482+18 58 36.77   ~7PNo 17.4 VqNEOCPD48
     A11F5VI KB2026 07 25.93906720 43 32.431+18 55 00.48   ~7PNZx17.7 GXNEOCPL99
     A11F5VI KB2026 07 25.94220320 43 47.930+18 53 40.31   ~7PNZx17.8 GXNEOCPL99
     A11F5VI KB2026 07 25.94381920 44 17.844+18 53 06.76   ~7PNo 17.2 VqNEOCPD48
     A11F5VI 0B2026 07 25.94526020 44 21.533+18 56 12.34   ~7Q9Z 17.47GXNEOCPL34
     A11F5VI KB2026 07 25.94548720 44 04.406+18 52 17.22   ~7PNZ 17.4 GXNEOCPL99
     A11F5VI KB2026 07 25.95420320 45 04.913+18 49 48.72   ~7PNK 17.3 GXNEOCP595
     A11F5VI KB2026 07 25.95483020 45 08.098+18 49 32.34   ~7PNK 17.2 GXNEOCP595
     A11F5VI KB2026 07 25.95545520 45 11.261+18 49 15.92   ~7PNK 17.0 GXNEOCP595
     A11F5VI KB2026 07 25.95608120 45 14.390+18 48 59.51   ~7PNK 17.7 GXNEOCP595
     A11F5VI KB2026 07 25.95670720 45 17.590+18 48 43.06   ~7PNK 17.4 GXNEOCP595
     A11F5VI 0B2026 07 25.96771820 46 14.088+18 46 24.38   ~7Q9Z 17.05GXNEOCPL34
     A11F5VI 0B2026 07 25.97753520 47 04.601+18 41 56.87   ~7Q9Z 16.80GXNEOCPL34
     A11F5VI KB2026 07 26.07401520 56 19.910+17 47 50.46   ~7Q2K 17.5 VZNEOCPK74
     A11F5VI KB2026 07 26.07589520 56 31.670+17 46 44.26   ~7Q2K 17.2 VZNEOCPK74
     A11F5VI KB2026 07 26.07777420 56 43.474+17 45 37.58   ~7Q2K 17.5 VZNEOCPK74
     A11F5VI KC2026 07 26.15864 21 07 28.45 +16 57 08.6    ~7Q5o 17.7 GXNEOCPW62
     A11F5VI KC2026 07 26.16041 21 07 41.44 +16 55 56.2    ~7Q5o 17.5 GXNEOCPW62
     A11F5VI KC2026 07 26.16217 21 07 54.40 +16 54 43.8    ~7Q5o 17.7 GXNEOCPW62
     A11F5VI  C2026 07 26.39785 21 45 25.01 +13 08 33.9    ~7QAK 16.3 R NEOCP718
     A11F5VI  C2026 07 26.39996 21 45 49.91 +13 05 48.7    ~7QAK 16.2 R NEOCP718
     A11F5VI  C2026 07 26.40243 21 46 19.01 +13 02 33.8    ~7QAK 16.4 R NEOCP718
     A11F5VI 0C2026 07 26.47036622 02 10.123+11 35 36.53   ~7QMo       VNEOCPF52
     A11F5VI KB2026 07 26.50750122 12 41.470+10 22 27.80   ~7QCo 16.2 GWNEOCP900
     A11F5VI KB2026 07 26.51020222 13 23.095+10 17 48.37   ~7QCo 15.9 GWNEOCP900
     A11F5VI KB2026 07 26.51874322 15 35.851+10 02 51.22   ~7QDK 16.4 GWNEOCP900
     A11F5VI KB2026 07 26.52144522 16 18.324+09 58 03.00   ~7QDK 16.3 GWNEOCP900
     A11F5VI KB2026 07 26.52414722 17 00.917+09 53 13.09   ~7QDK 16.7 GWNEOCP900
     A11F5VI KB2026 07 26.54379522 22 17.054+09 16 43.33   ~7QDZ 17.0 GXNEOCPQ06
     A11F5VI KB2026 07 26.54557722 22 46.343+09 13 19.97   ~7QDZ 17.9 GXNEOCPQ06
     A11F5VI KB2026 07 26.54735922 23 15.867+09 09 54.47   ~7QDZ 17.5 GXNEOCPQ06

Station data:
(595) Farra d'Isonzo  (N45.915731 E13.525780)  Italy.  Observers S. Aschi, E.
   Pettarin, G. Panterotto. Measurers S. Aschi, E. Pettarin. 0.40-m f/5.15
   reflector + CCD.
(718) Tooele  (N40.641406 W112.295800)  US/Utah.  Observer P. Wiggins. 0.35-m
   f/5.5 Schmidt-Cassegrain + CCD.
(900) Moriyama  (N35.049753 E135.989940)  Japan.  Observer Y. Ikari. 0.26-m
   f/7.0 reflector + CCD.
(C43) Hoyerswerda  (N51.448368 E14.279200)  Germany.  Observer P. Lindner.
   0.30-m f/6.3 Schmidt-Cassegrain + CCD.
(D48) Niederbexbach Observatory  (N49.330848 E7.263810)  Germany.  Observer
   W. Wiedemann. 0.28-m f/4.3 Schmidt- Cassegrain + CCD.
(F52) Pan-STARRS 2, Haleakala  (N20.707382 W156.255910)  US/Hawaii.
   Observers J. Herman, T. Lowe, P. Minguez, A. Schultz, I. Smith. Measurers
   K. Chambers, T. de Boer, J. Fairlamb, H. Gao, M. Huber, C.-C. Lin, E.
   Magnier, Y. Ramanjooloo, R. Wainscoat, R. Weryk. 1.8-m Ritchey-Chrétien +
   CCD.
(G34) Oberfrauendorf  (N50.860002 E13.701500)  Germany.  Observer T. Felber.
   0.35-m f/6.3 Schmidt-Cassegrain + CCD.
(K74) Muensterschwarzach Observatory, Schwarzach  (N49.805276 E10.236400)
   Germany.  Observer C. Gerhard. 0.30-m f/3.75 Newtonian reflector + CCD.
(L34) Galhassin Robotic Telescope, Isnello  (N37.939358 E14.020610)  Italy.
   Observer A. Nastasi. 0.40-m reflector + CCD.
(L99) Novosilky  (N50.607686 E30.602810)  Ukraine.  Observer A. M. Kozhukhov.
   0.30-m f/1.0 astrograph + CMO.
(Q06) Tarui Observatory, Tarui  (N35.394791 E136.495470)  Japan.  Observer H.
   Watanabe. 0.35-m f/1.9 Schmidt-Cassegrain + CMO.
(T08) ATLAS-MLO, Mauna Loa  (N19.536150 W155.576050)  US/Hawaii.  Observers
   L. Denneau, R. Siverd, J. Tonry, H. Weiland. Measurers L. Denneau, N.
   Erasmus, A. Fitzsimmons, J. Robinson, R. Siverd, J. Tonry, H. Weiland.
   0.5-m f/2.0 Schmidt + CCD.
(W62) Comet Hunter Observatory2, New Ringgold  (N40.745185 W75.862390)
   US/Pennsylvania.  Observer J. Maikner. 0.30-m f/3.8 Riccardi-Honders + CCD.

Orbital elements:  A11F5VI
   Perihelion 2026 Sep 10.461134 +/- 0.00582 TT = 11:04:01.9 (JD 2461293.961134)
Epoch 2026 Jul 26.0 TT = JDT 2461247.5   Earth MOID: 0.0014   Ma: 0.0436
M 332.246109227 +/- 0.011           (J2000 ecliptic)             AutoNEOCP
n   0.597357152 +/- 0.000163        Peri.  236.527746 +/- 0.0037
a   1.396304069 +/- 0.000254        Node   123.599460 +/- 0.000039
e   0.35741415 +/- 0.00013          Incl.   15.825462 +/- 0.0041
P   1.650/602.643d         H 26.86  G  0.15   U  6.9
q 0.897245234 +/- 1.82e-5    Q 1.895362904 +/- 0.000526
40 of 45 observations 2026 July 25-26 (25.9 hr); mean residual 0".53
Residuals in arcseconds: 
260725 T08  .72+  .09-    260725 L99( .52-  3.1-)   260726 W62  .17+  .73+    
260725 T08  .04+  .07+    260725 L99( .46-  2.3-)   260726 W62  .16+  .78+    
260725 T08  .97-  .50-    260725 D48  .50+  .06+    260726 W62  .22+  .76+    
260725 G34  .42-  .11-    260725 L34  .06+  .25+    260726 718  .69+  .25-    
260725 G34  .54+  .03+    260725 L99  1.9+  .14+    260726 718  1.8+  .53-    
260725 G34  .16+  .33-    260725 595  .57-  .06+    260726 718  .39+  1.1-    
260725 G34  .41-  .34-    260725 595  .24-  .10+    260726 F52  .14+  .12-    
260725 G34  .21-  .06-    260725 595  .12-  .07+    260726 900  .74-  .09+    
260725 G34  .50-  .38-    260725 595  .61-  .10+    260726 900  .34+  .18-    
260725 G34  .40-  .36-    260725 595  .13-  .12+    260726 900  .34-  .34-    
260725 G34  .74-  .03-    260725 L34  .41-  .07-    260726 900  .19-  .24-    
260725 C43(23.7-  159+)   260725 L34  .08-  .06-    260726 900  1.5-  .39+    
260725 C43(23.5-  159+)   260726 K74  .64-  .14+    260726 Q06  .16-  .31+    
260725 C43(24.0-  158+)   260726 K74  .55-  .15+    260726 Q06  .86-  .80+    
260725 D48  .28+  .42-    260726 K74  .36-  .05-    260726 Q06  .44+  .17+    

Ephemerides (geocentric):
Date (UTC) HH   RA             Dec           delta  r     elong  mag " sig PA
---- --------  ------------   ------------  ------ ------ -----  --- --------
2026 07 28 22  06 10 21.449   -26 13 58.42  .01414 1.0076  56.6 22?? 2.09  90
2026 07 28 23  06 11 27.570   -26 13 02.74  .01442 1.0074  56.5 22?? 2.09  90
2026 07 29 00  06 12 31.149   -26 12 07.28  .01470 1.0072  56.3 22?? 2.09  90
2026 07 29 01  06 13 32.327   -26 11 12.13  .01498 1.0070  56.2 22?? 2.10  90
2026 07 29 02  06 14 31.236   -26 10 17.36  .01527 1.0069  56.1 22?? 2.10  90
2026 07 29 03  06 15 27.998   -26 09 23.03  .01555 1.0067  55.9 22?? 2.10  89
2026 07 29 04  06 16 22.728   -26 08 29.19  .01583 1.0065  55.8 23?? 2.10  89
2026 07 29 05  06 17 15.531   -26 07 35.89  .01611 1.0063  55.7 23?? 2.11  89
2026 07 29 06  06 18 06.506   -26 06 43.15  .01640 1.0061  55.6 23?? 2.11  89
2026 07 29 07  06 18 55.747   -26 05 51.01  .01668 1.0059  55.4 23?? 2.11  89
2026 07 29 08  06 19 43.339   -26 04 59.49  .01696 1.0057  55.3 23?? 2.11  89
2026 07 29 09  06 20 29.363   -26 04 08.60  .01725 1.0055  55.2 23?? 2.12  89
2026 07 29 10  06 21 13.895   -26 03 18.37  .01753 1.0053  55.1 23?? 2.12  89
2026 07 29 11  06 21 57.006   -26 02 28.78  .01781 1.0052  55.0 23?? 2.12  89
2026 07 29 12  06 22 38.762   -26 01 39.86  .01810 1.0050  54.9 23?? 2.12  89
2026 07 29 13  06 23 19.226   -26 00 51.61  .01838 1.0048  54.8 23?? 2.12  88
2026 07 29 14  06 23 58.457   -26 00 04.02  .01867 1.0046  54.8 23?? 2.13  88
2026 07 29 15  06 24 36.511   -25 59 17.10  .01895 1.0044  54.7 23?? 2.13  88
2026 07 29 16  06 25 13.439   -25 58 30.84  .01924 1.0042  54.6 23?? 2.13  88
2026 07 29 17  06 25 49.290   -25 57 45.24  .01952 1.0040  54.5 23?? 2.13  88
2026 07 29 18  06 26 24.111   -25 57 00.29  .01981 1.0038  54.4 23?? 2.13  88
2026 07 29 19  06 26 57.946   -25 56 15.98  .02009 1.0036  54.4 23?? 2.13  88
2026 07 29 20  06 27 30.835   -25 55 32.32  .02037 1.0035  54.3 23?? 2.14  88
2026 07 29 21  06 28 02.819   -25 54 49.28  .02066 1.0033  54.2 23?? 2.14  88
2026 07 29 22  06 28 33.933   -25 54 06.86  .02094 1.0031  54.2 23?? 2.14  88
2026 07 29 23  06 29 04.214   -25 53 25.05  .02123 1.0029  54.1 23?? 2.14  88
2026 07 30 00  06 29 33.694   -25 52 43.85  .02152 1.0027  54.0 23?? 2.14  88
2026 07 30 01  06 30 02.404   -25 52 03.23  .02180 1.0025  54.0 23?? 2.14  88
2026 07 30 02  06 30 30.375   -25 51 23.20  .02209 1.0023  53.9 23?? 2.14  88
2026 07 30 03  06 30 57.635   -25 50 43.73  .02237 1.0022  53.9 23?? 2.15  88
2026 07 30 04  06 31 24.210   -25 50 04.83  .02266 1.0020  53.8 23?? 2.15  87
2026 07 30 05  06 31 50.127   -25 49 26.47  .02294 1.0018  53.7 23?? 2.15  87
2026 07 30 06  06 32 15.410   -25 48 48.65  .02323 1.0016  53.7 24?? 2.15  87
2026 07 30 07  06 32 40.082   -25 48 11.35  .02351 1.0014  53.6 24?? 2.15  87
2026 07 30 08  06 33 04.165   -25 47 34.57  .02380 1.0012  53.6 24?? 2.15  87
2026 07 30 09  06 33 27.680   -25 46 58.30  .02408 1.0010  53.6 24?? 2.15  87
2026 07 30 10  06 33 50.647   -25 46 22.51  .02437 1.0008  53.5 24?? 2.15  87
2026 07 30 11  06 34 13.085   -25 45 47.21  .02466 1.0007  53.5 24?? 2.15  87
2026 07 30 12  06 34 35.013   -25 45 12.39  .02494 1.0005  53.4 24?? 2.16  87
2026 07 30 13  06 34 56.447   -25 44 38.02  .02523 1.0003  53.4 24?? 2.16  87
2026 07 30 14  06 35 17.406   -25 44 04.11  .02551 1.0001  53.3 24?? 2.16  87
2026 07 30 15  06 35 37.904   -25 43 30.64  .02580 0.9999  53.3 24?? 2.16  87
2026 07 30 16  06 35 57.956   -25 42 57.61  .02609 0.9997  53.3 24?? 2.16  87
2026 07 30 17  06 36 17.578   -25 42 24.99  .02637 0.9995  53.2 24?? 2.16  87
2026 07 30 18  06 36 36.784   -25 41 52.79  .02666 0.9994  53.2 24?? 2.16  87
2026 07 30 19  06 36 55.586   -25 41 20.99  .02695 0.9992  53.1 24?? 2.16  87
2026 07 30 20  06 37 13.997   -25 40 49.59  .02723 0.9990  53.1 24?? 2.16  87
2026 07 30 21  06 37 32.031   -25 40 18.57  .02752 0.9988  53.1 24?? 2.16  87